azfonts.net alexa rank chart, azfonts.net alexa rank daily changes

azfonts.net alexa rank chart, azfonts.net alexa rank daily changes

azfonts.net
Actual rank:
62 613

RANK HISTORY

Date Rank Diff
2017/05/25 62 613 -1 025
2017/05/24 63 638 +406
2017/05/23 63 232 +853
2017/05/22 62 379 -57
2017/05/21 62 436 +927
2017/05/20 61 509 -463
2017/05/19 61 972 +201
2017/05/18 61 771 -1 099
2017/05/17 62 870 -598
2017/05/16 63 468 +379
2017/05/15 63 089 +169
2017/05/14 62 920 +230
2017/05/13 62 690 -261
2017/05/12 62 951 +37
2017/05/11 62 914 -518
2017/05/10 63 432 -439
2017/05/09 63 871 +775
2017/05/08 63 096 +1 602
2017/05/07 61 494 +469
2017/05/06 61 025 +767
2017/05/05 60 258 -225
2017/05/04 60 483 -697
2017/05/03 61 180 -316
2017/05/02 61 496 +210
2017/05/01 61 286 +790
2017/04/30 60 496 +237
2017/04/29 60 259 +712
2017/04/28 59 547 -1 092
2017/04/27 60 639 +268
2017/04/26 60 371 -4
2017/04/25 60 375 +961
2017/04/24 59 414 +12
2017/04/23 59 402 +127
2017/04/22 59 275 +723
2017/04/21 58 552 -660
2017/04/20 59 212 -407
2017/04/19 59 619 -113
2017/04/18 59 732 +542
2017/04/17 59 190 +177
2017/04/16 59 013 +603
2017/04/15 58 410 +302
2017/04/14 58 108 -729
2017/04/13 58 837 +35
2017/04/12 58 802 +923
2017/04/11 57 879 +1 615
2017/04/10 56 264 +1 712
2017/04/09 54 552 +230
2017/04/08 54 322 +29
2017/04/07 54 293 -996
2017/04/06 55 289 -97
2017/04/05 55 386 +819
2017/04/04 54 567 +890
2017/04/03 53 677 +169
2017/04/02 53 508 -73
2017/04/01 53 581 -19
2017/03/31 53 600 +146
2017/03/30 53 454 -653
2017/03/29 54 107 +865
2017/03/28 53 242 +211
2017/03/27 53 031 -4
2017/03/26 53 035

WIDGET FOR YOUR SITE

DOMAINS WITH THE NEAREST RANK

Domain Rank
gogi.in 62 608
experianidentityservice.co.uk 62 609
lima-city.de 62 610
thetrendspotter.net 62 611
runnerinn.com 62 612
azfonts.net 62 613
dreamsinavila.tmall.com 62 614
mosalingua.com 62 615
mackinvia.com 62 616
smallable.com 62 617
mytemp.email 62 618

DOMAINS WITH THE NEAREST RANK BY TLD .net

Domain Rank
savepic.net 62 484
52ch.net 62 490
rus-game.net 62 498
freepsdfiles.net 62 503
thetrendspotter.net 62 611
azfonts.net 62 613
techjourney.net 62 671
potsu.net 62 674
lovepedia.net 62 686
athensams.net 62 695
destinylfg.net 62 698